De Soto, IL

7:47 AM CDT on September 26, 2016 (GMT -0500)
Southern Illinois

Weather History for KMDH - April, 2014

Change the Weather History Date:

Wednesday, April 16, 2014

  Actual Average Record
Temperature  
Mean Temperature 45 °F -  
Max Temperature 57 °F 69 °F 87 °F (1924)
Min Temperature 33 °F 45 °F 25 °F (1928)
Degree Days  
Heating Degree Days 20    
Moisture  
Dew Point 26 °F    
Average Humidity 51    
Maximum Humidity 72    
Minimum Humidity 27    
Precipitation  
Precipitation 0.00 in - - ()
Sea Level Pressure  
Sea Level Pressure 30.23 in    
Wind  
Wind Speed 8 mph (SE)    
Max Wind Speed 16 mph    
Max Gust Speed 23 mph    
Visibility 10 miles    
Events      
Averages and records for this station are not official NWS values.
T = Trace of Precipitation, MM = Missing Value Source: NWS Daily Summary

Daily Weather History Graph

Daily Weather History Graph

Search for Another Location

Airport or City:

Trip Planner

Search our weather history database for the weather conditions in past years. The results will help you decide how hot, cold, wet, or windy it might be!

Date:

Astronomy

Apr. 16, 2014 Rise Set
Actual Time 6:20 AM CDT 7:33 PM CDT
Civil Twilight 5:53 AM CDT 8:00 PM CDT
Nautical Twilight 5:20 AM CDT 8:33 PM CDT
Astronomical Twilight 4:47 AM CDT 9:07 PM CDT
Moon 9:15 PM CDT (4/16) 7:08 AM CDT (4/16)
Length of Visible Light 14h 07m
Length of Day
13h 13m
Full, 98% of the Moon is Illuminated
Apr 16
Full
Apr 22
Last Quarter
Apr 29
New
May 6
First Quarter
May 14
Full

Hourly Weather History & Observations

Time (CDT) Temp. Windchill Dew Point Humidity Pressure Visibility Wind Dir Wind Speed Gust Speed Precip Events Conditions
12:52 AM 35.1 °F 30.1 °F 24.1 °F 64% 30.27 in 10.0 mi SSE 5.8 mph - N/A   Clear
1:52 AM 34.0 °F 31.0 °F 24.1 °F 67% 30.28 in 10.0 mi South 3.5 mph - N/A   Clear
2:52 AM 34.0 °F 28.8 °F 23.0 °F 64% 30.27 in 10.0 mi SE 5.8 mph - N/A   Clear
3:52 AM 33.1 °F 26.9 °F 25.0 °F 72% 30.27 in 10.0 mi SE 6.9 mph - N/A   Clear
4:52 AM 34.0 °F 28.8 °F 24.1 °F 67% 30.28 in 10.0 mi SE 5.8 mph - N/A   Clear
5:52 AM 33.1 °F 27.7 °F 24.1 °F 70% 30.29 in 10.0 mi SE 5.8 mph - N/A   Clear
6:52 AM 35.1 °F 30.1 °F 26.1 °F 70% 30.30 in 10.0 mi SE 5.8 mph - N/A   Clear
7:52 AM 37.9 °F 31.5 °F 27.0 °F 65% 30.32 in 10.0 mi SE 9.2 mph - N/A   Mostly Cloudy
8:52 AM 42.1 °F 34.9 °F 24.1 °F 49% 30.32 in 10.0 mi SSE 13.8 mph - N/A   Clear
9:52 AM 44.1 °F 37.7 °F 24.1 °F 45% 30.33 in 10.0 mi SE 12.7 mph - N/A   Clear
10:52 AM 48.0 °F - 27.0 °F 44% 30.33 in 10.0 mi SSE 9.2 mph - N/A   Mostly Cloudy
11:52 AM 50.0 °F - 27.0 °F 41% 30.30 in 10.0 mi ESE 16.1 mph - N/A   Mostly Cloudy
1:52 PM 55.0 °F - 24.1 °F 30% 30.23 in 10.0 mi SE 15.0 mph 23.0 mph N/A   Clear
2:52 PM 55.0 °F - 23.0 °F 29% 30.19 in 10.0 mi SE 9.2 mph 18.4 mph N/A   Clear
3:52 PM 57.0 °F - 23.0 °F 27% 30.16 in 10.0 mi SSE 15.0 mph - N/A   Clear
4:52 PM 55.0 °F - 24.1 °F 30% 30.14 in 10.0 mi South 15.0 mph - N/A   Clear
5:52 PM 54.0 °F - 25.0 °F 33% 30.14 in 10.0 mi SSE 12.7 mph - N/A   Clear
6:52 PM 54.0 °F - 27.0 °F 35% 30.13 in 10.0 mi SSE 10.4 mph - N/A   Clear
7:52 PM 48.9 °F - 28.9 °F 46% 30.14 in 10.0 mi SE 6.9 mph - N/A   Clear
8:52 PM 44.1 °F 40.1 °F 30.9 °F 60% 30.15 in 10.0 mi SE 6.9 mph - N/A   Clear
9:52 PM 46.9 °F - 28.9 °F 50% 30.15 in 10.0 mi SE 6.9 mph - N/A   Clear
10:52 PM 46.0 °F 42.5 °F 28.9 °F 51% 30.16 in 10.0 mi SSE 6.9 mph - N/A   Clear
11:52 PM 45.0 °F 41.8 °F 30.0 °F 56% 30.17 in 10.0 mi SSE 5.8 mph - N/A   Clear